Temperature
18 17 17 16 16 16 16 16 16 16 16 16 16 16 15 15 15 15 15 16 16 16 15 15 15 15 15 16 16 16 16 16 16 16 16 16 15 15 15 14 13 13 14
19 17 17 17 16 16 16 16 16 16 16 16 16 16 15 15 15 15 16 16 16 16 15 15 15 15 16 16 16 16 16 16 16 16 15 15 15 15 14 14 14 14 14
19 17 17 17 16 16 16 16 16 16 16 16 16 16 15 15 15 16 16 16 16 16 16 15 16 16 16 16 16 16 16 16 16 15 15 14 14 14 14 14 14 14 14
19 17 16 16 16 16 16 16 16 16 16 16 16 16 16 15 15 16 16 16 16 16 16 16 16 16 16 16 16 16 16 16 16 15 14 13 13 14 14 14 14 14 14
18 16 16 16 16 16 16 16 16 16 16 16 16 16 16 16 16 16 16 16 17 17 17 16 16 16 16 16 16 16 16 16 16 14 14 14 14 14 14 14 14 14 14
17 16 16 16 16 16 16 16 16 16 16 16 16 16 16 16 16 16 16 17 17 17 17 17 16 16 16 16 16 16 16 16 15 14 14 13 14 14 14 14 14 14 14
16 16 16 16 16 16 16 16 16 16 16 16 16 16 16 16 16 16 16 17 17 17 17 17 17 16 16 16 16 16 16 16 14 14 14 14 14 14 14 14 14 14 14
16 16 15 16 16 16 16 16 16 17 17 16 16 16 16 16 16 16 16 16 17 17 17 17 17 17 16 16 16 16 16 16 15 14 14 14 14 14 14 14 14 14 14
15 15 15 15 15 15 16 16 16 17 17 17 16 16 16 16 16 16 16 16 16 17 17 17 17 17 16 16 16 16 16 16 14 14 14 14 14 14 14 14 14 14 14
15 15 15 15 15 15 15 16 16 16 17 17 17 17 17 16 16 17 16 16 16 16 16 17 17 16 16 16 16 16 16 15 14 14 14 14 14 14 14 14 14 14 14
15 15 15 15 15 15 15 15 15 16 16 17 17 17 17 16 16 16 17 17 16 16 16 16 16 16 16 16 16 16 15 15 14 14 14 14 14 14 14 14 14 14 14
15 15 15 15 15 15 15 15 15 15 16 16 16 16 16 16 16 16 17 17 16 16 16 16 16 16 16 15 15 15 15 15 14 14 14 14 14 14 13 13 13 13 14
15 15 15 15 15 14 14 14 14 14 15 15 15 16 16 16 16 16 16 16 16 16 16 16 15 15 15 15 15 15 15 15 14 14 14 14 14 13 13 13 13 13 13
14 14 14 15 15 14 14 14 14 14 15 15 16 16 15 16 16 15 16 15 16 15 15 15 15 14 15 14 14 14 14 14 14 14 14 14 14 13 13 13 13 13 13
15 15 15 15 14 14 14 14 14 14 15 15 15 16 15 15 15 15 15 15 15 15 15 15 14 14 14 14 14 14 14 13 13 13 13 14 14 13 13 13 12 12 12
15 15 15 15 15 15 15 14 14 14 15 14 15 15 15 15 15 15 15 15 15 15 14 14 14 14 13 13 13 13 13 13 13 13 13 13 13 13 13 13 12 12 12
15 15 15 15 15 15 15 14 14 14 14 15 15 15 15 15 15 15 14 14 14 14 14 14 13 13 13 13 13 13 13 13 13 13 12 13 13 13 13 12 12 12 12
15 15 15 15 15 15 15 15 14 14 14 14 14 14 15 15 14 14 14 14 14 14 14 13 13 13 13 13 13 13 13 13 13 12 12 12 12 12 12 12 12 12 12
16 16 15 15 15 15 15 15 15 15 15 14 14 15 15 15 14 14 14 14 14 14 13 13 13 13 13 13 12 12 12 13 13 13 13 12 12 12 12 12 12 12 12
16 16 16 16 15 15 15 15 15 15 15 15 15 15 15 14 14 14 14 14 14 14 14 13 13 13 13 13 12 12 13 13 13 13 13 12 12 12 12 12 12 12 12
17 16 16 16 16 16 15 15 15 15 15 15 15 15 15 15 14 14 14 14 14 14 13 13 13 13 13 12 12 12 12 12 12 12 12 12 12 12 12 12 12 12 11
17 17 16 16 16 16 16 16 16 15 15 15 15 15 15 15 14 14 14 14 14 13 13 13 13 12 12 12 11 11 11 12 12 12 12 12 12 12 12 12 11 11 11
16 17 17 16 16 16 16 16 15 15 15 15 15 15 15 14 14 14 14 14 13 13 13 13 13 12 12 11 11 11 11 12 12 11 11 11 11 11 11 11 11 11 10
16 16 16 16 16 16 16 15 15 15 15 15 15 14 14 14 14 14 13 13 13 13 13 13 12 12 11 11 11 10 10 10 10 10 10 10 10 10 10 10 10 10 10
16 16 16 16 16 15 15 15 15 15 14 14 14 14 14 13 13 13 13 13 12 12 12 12 12 12 11 11 10 10 10 9 9 9 9 9 9 9 9 9 9 9 9
15 15 15 15 15 15 15 14 14 14 14 13 13 13 13 12 12 12 12 12 12 11 11 11 11 11 10 10 10 9 9 9 9 9 9 9 9 9 8 8 8 8 8
Wind_Speed
13 18 22 19 18 17 16 15 15 14 13 12 11 11 11 11 12 12 13 14 14 15 16 18 19 19 18 17 17 16 16 15 15 14 13 13 12 11 11 9 7 11 11
17 20 22 19 18 17 16 15 14 13 12 11 10 10 11 11 12 12 13 13 14 14 16 17 18 18 17 17 16 15 15 14 13 11 8 10 11 10 10 10 11 10 9
18 20 21 19 18 17 16 16 14 13 12 10 9 10 11 12 13 13 13 13 14 15 15 16 17 16 16 15 14 14 13 12 11 6 2 8 10 10 9 9 9 9 8
19 19 20 19 17 17 17 15 14 13 11 10 9 10 11 12 12 13 13 13 14 14 15 15 15 14 14 13 13 12 11 10 8 3 7 9 9 9 9 10 10 10 10
18 18 18 19 17 17 17 16 14 12 11 9 9 10 11 12 12 13 13 13 13 14 14 14 13 13 12 11 11 10 10 8 5 5 9 8 9 9 9 10 11 10 9
17 17 18 18 18 17 17 16 14 12 11 9 8 10 11 11 12 13 12 12 12 12 12 12 12 11 11 10 10 9 8 5 2 8 7 8 9 9 9 10 10 10 10
15 16 18 18 18 17 17 16 14 12 11 9 8 10 11 12 12 12 11 11 11 11 10 10 10 10 10 9 9 8 7 4 6 7 6 7 9 8 8 9 9 10 10
14 15 17 18 17 17 17 16 14 12 11 9 9 9 11 11 11 11 10 9 9 9 9 8 8 8 8 8 7 6 5 2 4 5 5 6 8 7 8 8 8 9 9
14 14 15 17 16 17 17 16 14 13 11 9 9 9 10 10 10 9 8 7 7 7 7 7 7 6 6 6 5 4 3 1 2 3 3 4 5 5 6 6 7 7 7
12 12 13 14 15 15 15 15 14 13 11 10 9 10 10 10 8 8 7 6 5 5 5 5 5 5 5 5 4 2 0 3 2 1 1 3 3 2 3 4 4 5 6
11 10 11 12 12 13 13 14 13 13 11 11 10 10 8 6 6 6 5 5 4 4 4 4 4 4 3 3 2 0 3 3 2 3 2 1 2 2 1 1 2 3 3
12 10 9 10 11 11 10 12 10 10 10 9 8 8 6 5 4 3 6 4 3 3 3 3 2 3 3 2 2 3 3 4 4 3 2 2 5 4 3 2 1 0 1
11 10 9 9 10 10 9 9 8 7 7 7 7 7 5 5 4 4 4 5 5 5 4 4 5 3 3 3 3 4 4 5 5 4 4 4 7 7 6 5 4 3 2
9 10 9 9 9 10 9 8 8 7 7 6 7 7 6 5 4 4 4 4 5 5 4 5 4 4 4 5 5 5 5 6 6 6 5 6 9 9 9 8 7 7 6
9 9 10 9 9 9 8 7 7 7 7 7 6 7 7 5 5 5 5 5 5 5 5 6 6 6 6 6 6 7 7 8 8 8 7 9 12 12 12 12 11 10 10
9 9 9 10 10 10 8 8 7 7 7 7 7 8 8 7 6 5 5 5 6 6 6 6 7 6 7 7 7 8 9 9 9 9 9 9 13 15 15 15 15 14 13
10 10 10 10 10 11 10 9 8 7 8 7 7 8 8 8 7 7 6 6 7 7 7 7 8 7 7 7 9 10 10 10 10 11 11 10 10 14 18 18 18 17 16
9 10 10 9 10 11 10 9 8 8 8 7 7 7 9 9 9 8 7 7 8 7 7 7 7 7 8 8 8 8 8 9 12 12 12 12 12 11 14 19 21 20 19
8 9 10 10 11 10 9 8 8 7 7 7 7 7 8 9 10 9 8 8 9 8 7 6 7 7 8 9 8 8 8 9 10 11 13 14 14 13 13 14 20 22 22
6 8 9 10 9 9 8 7 6 6 6 6 6 7 8 8 9 9 8 9 9 7 7 7 9 8 8 8 8 9 10 10 10 11 12 12 12 13 14 14 13 16 22
5 7 9 9 9 8 7 6 6 6 6 5 5 6 6 7 8 9 8 8 8 8 9 9 9 9 8 7 6 8 10 11 12 10 9 9 10 11 12 12 12 13 12
5 6 7 8 8 8 6 5 4 4 4 4 3 3 3 4 5 6 7 7 7 7 9 10 9 7 6 6 6 6 7 8 9 8 8 7 9 8 9 10 11 12 12
6 6 6 6 6 6 6 5 4 3 3 4 4 3 2 3 4 5 6 6 6 7 8 9 9 11 9 8 8 7 7 6 5 4 6 6 7 6 7 7 9 10 11
6 5 5 6 5 5 6 6 7 5 5 4 2 2 1 1 2 3 4 6 6 6 8 9 9 9 10 9 8 8 10 8 6 6 5 5 5 7 7 6 7 9 9
7 6 6 6 6 5 5 5 5 4 3 2 2 2 2 1 1 2 3 4 5 5 7 8 8 8 8 9 8 7 8 8 9 8 8 7 6 6 6 6 6 7 7
9 8 7 7 6 5 4 4 4 4 4 3 3 3 2 2 1 2 3 3 4 4 5 6 7 8 8 9 8 8 7 7 7 7 8 8 7 6 6 5 5 5 6
Wind_Direction
163 160 152 155 152 148 142 137 130 123 116 111 110 111 110 103 96 90 85 81 81 82 86 87 88 88 88 87 85 82 80 78 75 71 68 66 67 69 65 48 44 74 67
156 157 151 156 154 149 144 136 129 122 115 111 111 113 113 105 100 95 90 86 85 85 87 88 88 87 86 85 84 83 81 78 75 69 72 84 72 66 62 47 39 56 61
154 155 154 155 153 149 142 136 131 124 117 114 116 119 117 110 104 98 94 89 87 87 88 88 88 87 85 84 83 81 80 77 72 68 66 79 79 68 61 55 53 53 55
154 157 159 150 151 146 141 138 133 127 121 118 121 123 121 115 108 101 97 93 90 90 89 89 88 87 84 83 82 80 78 74 65 24 66 66 70 66 58 55 55 54 51
154 157 150 147 148 145 142 139 136 130 124 120 121 124 123 119 111 104 100 96 95 94 93 91 88 84 81 79 79 79 78 75 65 58 65 62 64 61 59 54 51 48 46
154 155 149 148 146 144 142 141 138 133 128 124 123 127 127 121 113 107 104 101 99 98 97 93 87 82 78 76 78 79 79 69 60 64 60 58 63 63 63 57 50 49 46
153 155 152 149 146 145 144 142 140 136 134 132 130 131 128 120 114 111 109 106 104 102 100 95 89 81 76 75 78 80 79 49 52 62 57 59 58 56 63 58 53 49 45
154 155 153 149 148 149 146 144 143 141 139 136 131 126 125 121 119 117 115 112 109 105 102 98 93 86 81 79 81 83 80 33 62 60 58 63 54 57 65 61 54 49 45
159 159 159 160 158 152 149 147 146 144 141 137 132 124 119 120 123 122 120 115 110 106 103 101 97 90 85 83 84 87 85 354 11 54 49 58 54 56 67 61 53 46 40
164 165 164 165 164 163 158 151 149 147 143 135 127 125 124 126 129 131 139 122 115 110 108 104 100 94 88 84 81 86 104 265 340 355 350 65 44 34 76 69 53 46 41
170 170 170 168 167 166 162 156 156 152 148 146 141 137 150 160 158 158 132 121 122 117 118 115 110 110 114 111 98 102 258 289 314 308 301 31 301 305 146 108 70 47 40
176 175 174 173 169 167 161 164 167 165 164 173 164 165 175 167 164 159 133 143 139 136 148 134 131 165 222 219 185 239 275 288 288 280 278 270 275 272 247 215 195 179 21
182 178 179 177 175 172 168 170 171 174 174 181 180 180 179 179 181 192 189 182 196 202 210 187 217 233 256 271 277 273 286 287 282 280 262 245 266 267 255 234 224 223 233
191 188 188 184 184 183 180 178 181 184 187 190 191 194 192 196 205 208 218 215 220 220 229 239 249 249 258 261 267 274 271 268 272 275 270 248 259 263 259 245 234 231 232
203 200 196 194 193 188 188 186 192 198 202 201 199 204 210 212 215 219 224 225 231 234 234 242 250 257 264 268 267 270 273 270 269 266 262 244 249 255 257 252 243 239 236
211 207 201 200 200 195 197 198 201 205 206 213 210 213 216 224 228 232 236 235 238 238 244 250 256 263 267 267 270 268 268 268 265 265 265 255 242 245 249 250 247 245 242
212 210 205 201 201 203 207 209 209 210 212 215 217 220 221 227 234 238 246 245 245 244 247 253 260 263 267 267 267 268 268 267 265 264 262 261 256 242 241 245 246 246 244
212 207 205 201 203 206 209 210 212 213 214 220 222 223 224 229 235 242 246 250 252 252 250 252 259 261 262 263 268 268 265 264 265 266 263 257 258 256 244 238 243 246 247
214 207 202 202 204 206 207 211 215 217 219 225 227 229 229 233 237 240 246 253 255 253 253 254 257 260 267 269 270 274 272 268 267 264 262 260 256 254 256 246 238 243 246
213 209 203 200 204 204 204 208 209 218 222 225 228 232 235 236 237 241 247 253 255 252 252 251 254 255 262 272 276 273 272 268 263 262 264 263 259 256 256 259 253 248 243
197 199 198 196 197 196 196 201 208 216 218 220 225 234 239 242 242 241 248 254 252 252 256 257 256 259 258 259 267 274 269 261 259 259 259 262 262 261 259 259 259 261 256
189 192 192 191 189 192 196 195 200 202 212 215 208 214 232 245 250 249 251 255 253 254 257 258 256 256 257 241 250 276 281 274 249 245 250 254 264 264 260 262 262 261 264
188 186 181 179 178 183 184 176 167 175 185 193 200 207 238 261 258 255 258 261 261 258 260 261 257 254 259 253 239 249 269 274 293 245 244 254 264 269 270 272 270 269 268
184 172 169 166 164 170 179 188 196 204 212 208 205 211 236 263 272 274 271 269 267 263 263 265 263 260 260 261 251 242 251 271 275 281 256 258 268 273 278 278 278 278 276
171 165 160 155 150 154 164 176 192 203 206 193 203 220 231 236 274 298 291 282 276 273 271 271 269 263 259 260 259 253 249 251 251 261 275 276 268 269 279 287 291 294 296
166 161 158 151 141 141 146 158 178 186 192 201 217 231 240 244 260 310 310 295 289 285 281 278 273 267 262 260 260 256 254 253 251 251 264 272 275 281 285 291 298 312 319
Height
1547 1550 1552 1556 1558 1560 1562 1563 1564 1565 1565 1565 1565 1565 1565 1564 1564 1564 1563 1563 1562 1562 1563 1563 1564 1564 1565 1565 1565 1565 1565 1564 1564 1564 1563 1562 1562 1561 1561 1561 1561 1561 1559
1547 1550 1552 1556 1559 1561 1563 1564 1565 1566 1566 1566 1566 1566 1566 1566 1566 1566 1565 1565 1564 1564 1565 1565 1566 1566 1566 1567 1567 1567 1566 1566 1566 1566 1565 1565 1564 1564 1563 1563 1562 1562 1561
1547 1550 1552 1556 1560 1562 1564 1565 1567 1567 1567 1567 1567 1568 1568 1568 1568 1568 1567 1567 1566 1566 1566 1567 1567 1568 1568 1568 1569 1569 1568 1568 1568 1568 1568 1568 1567 1566 1566 1565 1565 1564 1563
1548 1551 1554 1557 1560 1563 1565 1566 1567 1568 1568 1568 1569 1569 1570 1570 1570 1570 1569 1569 1569 1569 1569 1569 1569 1570 1570 1570 1571 1570 1570 1570 1570 1570 1571 1571 1570 1569 1568 1567 1567 1566 1565
1549 1552 1554 1557 1561 1563 1565 1567 1568 1569 1569 1570 1570 1571 1571 1571 1572 1572 1571 1571 1571 1571 1571 1571 1572 1572 1572 1573 1573 1573 1572 1572 1572 1572 1572 1572 1571 1570 1570 1569 1568 1568 1567
1549 1553 1555 1558 1561 1564 1566 1568 1569 1570 1570 1571 1571 1572 1573 1573 1573 1573 1573 1573 1573 1573 1574 1574 1574 1574 1575 1575 1575 1575 1574 1574 1574 1574 1574 1574 1573 1572 1571 1571 1570 1569 1568
1550 1553 1556 1559 1562 1564 1566 1568 1569 1571 1571 1572 1573 1573 1574 1574 1575 1575 1575 1575 1575 1575 1576 1576 1576 1576 1577 1577 1577 1576 1576 1576 1576 1576 1575 1575 1574 1573 1572 1571 1571 1569 1569
1551 1554 1557 1559 1562 1565 1567 1568 1570 1571 1572 1573 1574 1574 1575 1575 1576 1576 1577 1577 1577 1577 1577 1578 1578 1578 1578 1578 1578 1578 1578 1577 1577 1577 1577 1576 1575 1574 1573 1572 1571 1570 1569
1552 1555 1557 1560 1562 1565 1567 1568 1570 1571 1572 1573 1574 1575 1576 1576 1577 1577 1577 1578 1578 1578 1578 1579 1579 1579 1579 1579 1579 1579 1579 1578 1579 1578 1577 1577 1575 1574 1573 1572 1571 1570 1569
1552 1555 1558 1560 1563 1565 1567 1568 1570 1571 1572 1573 1574 1575 1576 1577 1577 1578 1578 1578 1579 1579 1579 1579 1579 1580 1580 1580 1580 1580 1579 1579 1579 1578 1578 1577 1576 1575 1574 1573 1571 1570 1569
1552 1555 1558 1560 1563 1565 1567 1568 1569 1571 1572 1573 1574 1575 1576 1577 1578 1578 1578 1579 1579 1579 1579 1579 1580 1580 1580 1580 1580 1579 1579 1579 1579 1578 1578 1576 1575 1574 1573 1572 1571 1570 1568
1552 1555 1557 1560 1562 1564 1566 1568 1569 1570 1571 1573 1574 1575 1576 1577 1577 1578 1578 1578 1579 1579 1579 1579 1579 1579 1579 1579 1579 1579 1579 1578 1578 1578 1577 1576 1575 1574 1573 1572 1570 1569 1568
1553 1554 1556 1559 1561 1563 1565 1567 1569 1570 1571 1572 1573 1574 1575 1576 1577 1577 1578 1578 1578 1579 1579 1579 1579 1579 1579 1578 1578 1578 1578 1577 1577 1576 1576 1574 1574 1573 1572 1571 1570 1568 1567
1552 1554 1555 1558 1560 1562 1564 1566 1568 1569 1570 1571 1572 1573 1574 1575 1575 1576 1576 1577 1577 1578 1578 1578 1578 1578 1578 1577 1577 1576 1576 1575 1575 1574 1574 1573 1572 1571 1570 1569 1568 1567 1566
1550 1552 1554 1556 1558 1561 1563 1564 1566 1568 1569 1570 1571 1572 1572 1573 1574 1575 1575 1575 1576 1576 1576 1576 1577 1577 1576 1576 1575 1574 1574 1573 1573 1572 1571 1570 1569 1569 1568 1567 1566 1565 1564
1549 1551 1552 1554 1556 1559 1561 1563 1565 1566 1567 1568 1569 1570 1571 1572 1572 1573 1574 1574 1574 1574 1575 1575 1575 1574 1574 1574 1573 1572 1572 1571 1570 1569 1568 1567 1566 1566 1565 1565 1564 1563 1562
1547 1549 1551 1553 1555 1557 1559 1561 1563 1564 1566 1567 1567 1568 1569 1570 1570 1571 1572 1572 1572 1572 1572 1572 1573 1572 1572 1571 1571 1570 1569 1568 1567 1566 1565 1564 1563 1562 1562 1561 1561 1560 1559
1545 1547 1549 1551 1553 1555 1558 1559 1561 1562 1564 1565 1565 1566 1567 1568 1568 1569 1569 1570 1570 1570 1570 1570 1570 1569 1569 1568 1568 1567 1566 1565 1564 1563 1562 1561 1560 1559 1558 1557 1557 1556 1555
1543 1545 1547 1549 1551 1554 1556 1557 1559 1560 1561 1562 1563 1564 1564 1565 1566 1566 1567 1567 1568 1567 1567 1567 1566 1566 1566 1565 1564 1563 1562 1561 1560 1558 1558 1557 1556 1555 1554 1553 1552 1552 1551
1540 1543 1545 1547 1549 1552 1553 1555 1556 1557 1558 1560 1560 1561 1562 1562 1563 1563 1563 1564 1564 1564 1563 1563 1563 1562 1561 1561 1559 1558 1557 1555 1554 1553 1553 1552 1551 1550 1549 1548 1547 1546 1546
1537 1540 1542 1544 1547 1549 1550 1552 1553 1554 1556 1557 1557 1558 1558 1559 1559 1559 1559 1560 1559 1559 1559 1559 1558 1557 1556 1556 1554 1552 1551 1550 1549 1548 1547 1547 1546 1545 1544 1543 1542 1541 1540
1534 1537 1539 1541 1543 1546 1548 1549 1550 1551 1552 1553 1554 1554 1554 1555 1555 1555 1555 1555 1554 1554 1554 1553 1553 1552 1551 1551 1550 1549 1547 1546 1543 1542 1542 1542 1541 1541 1539 1538 1537 1536 1535
1531 1533 1535 1538 1540 1542 1544 1546 1547 1548 1548 1549 1549 1549 1550 1550 1550 1550 1550 1549 1549 1548 1548 1548 1547 1546 1545 1545 1545 1545 1543 1540 1540 1538 1537 1537 1537 1536 1535 1534 1532 1531 1530
1527 1529 1531 1534 1536 1539 1540 1542 1543 1544 1544 1545 1545 1545 1545 1545 1545 1544 1544 1544 1543 1543 1542 1542 1541 1540 1539 1539 1539 1538 1538 1537 1536 1533 1533 1532 1531 1531 1530 1529 1527 1526 1524
1523 1525 1528 1530 1532 1534 1536 1538 1539 1540 1540 1540 1540 1540 1540 1540 1539 1539 1538 1538 1537 1536 1536 1535 1534 1534 1533 1532 1532 1532 1532 1531 1530 1529 1527 1528 1527 1526 1525 1524 1522 1521 1519
1519 1521 1524 1526 1528 1530 1532 1533 1534 1535 1536 1536 1536 1535 1535 1534 1534 1533 1533 1532 1531 1530 1530 1529 1528 1527 1527 1526 1526 1526 1526 1526 1525 1524 1523 1522 1522 1521 1521 1519 1518 1516 1514